Weather History for Lancaster, SC

Change the Weather History Date:

Thursday, August 8, 2013

  Actual Average (KUZA) Record (KUZA)
Temperature  
Mean Temperature 80 °F -  
Max Temperature 89 °F 88 °F 102 °F (2007)
Min Temperature 71 °F 68 °F 55 °F (2004)
Cooling Degree Days 15    
Growing Degree Days 30 (Base 50)    
Moisture  
Dew Point 74 °F    
Average Humidity 91    
Maximum Humidity 100    
Minimum Humidity 59    
Precipitation  
Precipitation 0.00 in - - ()
Sea Level Pressure  
Sea Level Pressure 30.06 in    
Wind  
Wind Speed 1 mph (SW)    
Max Wind Speed 7 mph    
Max Gust Speed -    
Visibility 9 miles    
Events Rain    
Averages and records for this station are not official NWS values.
T = Trace of Precipitation, MM = Missing Value Source: NWS Daily Summary

Daily Weather History Graph

Daily Weather History Graph

Search for Another Location

Airport:

Trip Planner

Search our weather history database for the weather conditions in past years. The results will help you decide how hot, cold, wet, or windy it might be!

Date:

Astronomy

Aug. 08, 2013 Rise Set
Actual Time 6:38 AM EDT 8:18 PM EDT
Civil Twilight 6:11 AM EDT 8:45 PM EDT
Nautical Twilight 5:38 AM EDT 9:18 PM EDT
Astronomical Twilight 5:04 AM EDT 9:52 PM EDT
Moon 8:17 AM EDT (8/8) 9:04 PM EDT (8/8)
Length of Visible Light 14h 34m
Length of Day
13h 39m
Waxing Crescent, 3% of the Moon is Illuminated
Aug 8
Waxing Crescent
Aug 14
First Quarter
Aug 20
Full
Aug 28
Last Quarter
Sep 5
New

Hourly Weather History & Observations

Time (EDT) Temp. Heat Index Dew Point Humidity Pressure Visibility Wind Dir Wind Speed Gust Speed Precip Events Conditions
12:15 AM 73.4 °F - 73.4 °F 100% 30.07 in 10.0 mi Calm Calm - N/A Rain Light Rain
12:35 AM 73.4 °F - 73.4 °F 100% 30.07 in 10.0 mi Calm Calm - N/A Rain Light Rain
12:55 AM 73.4 °F - 73.4 °F 100% 30.07 in 10.0 mi Calm Calm - N/A Rain Light Rain
1:15 AM 71.6 °F - 71.6 °F 100% 30.07 in 10.0 mi Calm Calm - N/A Rain Light Rain
1:35 AM 71.6 °F - 71.6 °F 100% 30.07 in 10.0 mi Calm Calm - N/A Rain Light Rain
1:55 AM 71.6 °F - 71.6 °F 100% 30.06 in 10.0 mi Calm Calm - N/A Rain Light Rain
2:15 AM 71.6 °F - 71.6 °F 100% 30.06 in 10.0 mi Calm Calm - N/A Rain Light Rain
2:35 AM 71.6 °F - 71.6 °F 100% 30.06 in 10.0 mi Calm Calm - N/A Rain Light Rain
2:55 AM 71.6 °F - 71.6 °F 100% 30.06 in 10.0 mi Calm Calm - N/A Rain Light Rain
3:15 AM 71.6 °F - 71.6 °F 100% 30.05 in 10.0 mi Calm Calm - N/A Rain Light Rain
3:35 AM 71.6 °F - 71.6 °F 100% 30.05 in 10.0 mi Calm Calm - N/A Rain Light Rain
3:55 AM 71.6 °F - 71.6 °F 100% 30.06 in 10.0 mi Calm Calm - N/A Rain Light Rain
4:15 AM 71.6 °F - 71.6 °F 100% 30.05 in 9.0 mi Calm Calm - N/A Rain Light Rain
4:35 AM 71.6 °F - 71.6 °F 100% 30.05 in 10.0 mi Calm Calm - N/A Rain Light Rain
4:55 AM 71.6 °F - 71.6 °F 100% 30.05 in 10.0 mi Calm Calm - N/A Rain Light Rain
5:15 AM 71.6 °F - 71.6 °F 100% 30.05 in 10.0 mi Calm Calm - N/A Rain Light Rain
5:35 AM 71.6 °F - 71.6 °F 100% 30.05 in 8.0 mi Calm Calm - N/A Rain Light Rain
5:55 AM 71.6 °F - 71.6 °F 100% 30.05 in 7.0 mi Calm Calm - N/A Rain Light Rain
6:15 AM 71.6 °F - 71.6 °F 100% 30.06 in 8.0 mi Calm Calm - N/A Rain Light Rain
6:35 AM 71.6 °F - 71.6 °F 100% 30.06 in 7.0 mi Calm Calm - N/A   Mostly Cloudy
6:55 AM 71.6 °F - 71.6 °F 100% 30.06 in 5.0 mi Calm Calm - N/A   Mostly Cloudy
7:15 AM 71.6 °F - 71.6 °F 100% 30.06 in 5.0 mi Calm Calm - N/A   Scattered Clouds
7:35 AM 71.6 °F - 71.6 °F 100% 30.06 in 8.0 mi Calm Calm - N/A   Scattered Clouds
7:55 AM 71.6 °F - 71.6 °F 100% 30.07 in 8.0 mi Calm Calm - N/A   Scattered Clouds
8:15 AM 73.4 °F - 73.4 °F 100% 30.07 in 10.0 mi Calm Calm - N/A   Partly Cloudy
8:35 AM 73.4 °F - 73.4 °F 100% 30.08 in 10.0 mi Calm Calm - N/A   Scattered Clouds
8:55 AM 73.4 °F - 73.4 °F 100% 30.08 in 10.0 mi Calm Calm - N/A   Partly Cloudy
9:15 AM 75.2 °F - 75.2 °F 100% 30.08 in 10.0 mi Calm Calm - N/A   Scattered Clouds
9:35 AM 75.2 °F - 75.2 °F 100% 30.09 in 10.0 mi Calm Calm - N/A   Scattered Clouds
9:55 AM 75.2 °F - 75.2 °F 100% 30.09 in 10.0 mi Calm Calm - N/A   Partly Cloudy
10:15 AM 77.0 °F - 75.2 °F 94% 30.09 in 10.0 mi WSW 3.5 mph - N/A   Scattered Clouds
10:35 AM 77.0 °F - 75.2 °F 94% 30.09 in 10.0 mi Calm Calm - N/A   Mostly Cloudy
10:55 AM 77.0 °F - 75.2 °F 94% 30.09 in 10.0 mi Calm Calm - N/A   Mostly Cloudy
11:15 AM 77.0 °F - 75.2 °F 94% 30.09 in 10.0 mi Calm Calm - N/A   Scattered Clouds
11:35 AM 80.6 °F 86.2 °F 75.2 °F 84% 30.09 in 10.0 mi Calm Calm - N/A   Mostly Cloudy
11:55 AM 80.6 °F 86.2 °F 75.2 °F 84% 30.10 in 10.0 mi South 3.5 mph - N/A   Scattered Clouds
12:15 PM 82.4 °F 89.5 °F 75.2 °F 79% 30.10 in 10.0 mi Calm Calm - N/A   Partly Cloudy
12:35 PM 84.2 °F 92.3 °F 75.2 °F 74% 30.09 in 10.0 mi West 4.6 mph - N/A   Scattered Clouds
12:55 PM 82.4 °F 89.5 °F 75.2 °F 79% 30.09 in 10.0 mi WSW 4.6 mph - N/A   Scattered Clouds
1:15 PM 84.2 °F 90.9 °F 73.4 °F 70% 30.09 in 10.0 mi WSW 4.6 mph - N/A   Partly Cloudy
1:35 PM 84.2 °F 90.9 °F 73.4 °F 70% 30.09 in 10.0 mi SSW 3.5 mph - N/A   Partly Cloudy
1:55 PM 84.2 °F 89.6 °F 71.6 °F 66% 30.08 in 10.0 mi Calm Calm - N/A   Clear
2:15 PM 86.0 °F 93.4 °F 73.4 °F 66% 30.07 in 10.0 mi Calm Calm - N/A   Partly Cloudy
2:35 PM 86.0 °F 91.8 °F 71.6 °F 62% 30.06 in 10.0 mi West 4.6 mph - N/A   Clear
2:55 PM 86.0 °F 91.8 °F 71.6 °F 62% 30.06 in 10.0 mi Calm Calm - N/A   Clear
3:15 PM 86.0 °F 91.8 °F 71.6 °F 62% 30.06 in 10.0 mi WSW 6.9 mph - N/A   Clear
3:35 PM 89.6 °F 98.2 °F 73.4 °F 59% 30.05 in 10.0 mi WSW 4.6 mph - N/A   Partly Cloudy
3:55 PM 86.0 °F 95.1 °F 75.2 °F 70% 30.05 in 10.0 mi SW 3.5 mph - N/A   Clear
4:15 PM 86.0 °F 95.1 °F 75.2 °F 70% 30.04 in 10.0 mi WSW 3.5 mph - N/A   Partly Cloudy
4:35 PM 86.0 °F 93.4 °F 73.4 °F 66% 30.04 in 10.0 mi WSW 4.6 mph - N/A   Partly Cloudy
4:55 PM 86.0 °F 93.4 °F 73.4 °F 66% 30.04 in 10.0 mi SW 5.8 mph - N/A   Clear
5:15 PM 86.0 °F 95.1 °F 75.2 °F 70% 30.03 in 10.0 mi Calm Calm - N/A   Clear
5:35 PM 84.2 °F 92.3 °F 75.2 °F 74% 30.02 in 10.0 mi SSE 3.5 mph - N/A   Clear
5:55 PM 84.2 °F 92.3 °F 75.2 °F 74% 30.03 in 10.0 mi SSE 3.5 mph - N/A   Clear
6:15 PM 84.2 °F 94.1 °F 77.0 °F 79% 30.03 in 10.0 mi Calm Calm - N/A   Clear
6:35 PM 84.2 °F 94.1 °F 77.0 °F 79% 30.03 in 10.0 mi Calm Calm - N/A   Clear
6:55 PM 82.4 °F 90.9 °F 77.0 °F 84% 30.04 in 10.0 mi Calm Calm - N/A   Clear
7:15 PM 80.6 °F 89.3 °F 80.6 °F 100% 30.04 in 10.0 mi Calm Calm - N/A   Clear
7:35 PM 80.6 °F 89.3 °F 80.6 °F 100% 30.04 in 10.0 mi Calm Calm - N/A   Clear
7:55 PM 78.8 °F - 78.8 °F 100% 30.05 in 10.0 mi Calm Calm - N/A   Clear
8:15 PM 77.0 °F - 77.0 °F 100% 30.05 in 7.0 mi Calm Calm - N/A   Clear
8:35 PM 77.0 °F - 77.0 °F 100% 30.05 in 4.0 mi Calm Calm - N/A   Clear
8:55 PM 77.0 °F - 77.0 °F 100% 30.05 in 5.0 mi Calm Calm - N/A   Clear
9:15 PM 75.2 °F - 75.2 °F 100% 30.05 in 4.0 mi Calm Calm - N/A Rain Light Rain
9:35 PM 75.2 °F - 75.2 °F 100% 30.05 in 4.0 mi Calm Calm - N/A Rain Light Rain
9:55 PM 75.2 °F - 75.2 °F 100% 30.06 in 4.0 mi Calm Calm - N/A   Clear
10:15 PM 75.2 °F - 75.2 °F 100% 30.06 in 3.0 mi Calm Calm - N/A Rain Light Rain
10:35 PM 73.4 °F - 73.4 °F 100% 30.06 in 3.0 mi Calm Calm - N/A Rain Light Rain
10:55 PM 73.4 °F - 73.4 °F 100% 30.06 in 3.0 mi Calm Calm - N/A Rain Light Rain
11:15 PM 73.4 °F - 73.4 °F 100% 30.06 in 3.0 mi Calm Calm - N/A Rain Light Rain
11:35 PM 73.4 °F - 73.4 °F 100% 30.05 in 3.0 mi Calm Calm - N/A Rain Light Rain
11:55 PM 73.4 °F - 73.4 °F 100% 30.05 in 3.0 mi Calm Calm - N/A Rain Light Rain